This is the latest recevied weather packets stored in our database for station/object KC2TER. If no packets are shown the sender has not sent any weather packets the latest 10 day(s).
| Time | Temp. | Humidity | Pressure | Rain* | Wind** | Luminosity | Snow |
|---|---|---|---|---|---|---|---|
| 1778252130 | 15.56° C | 47% | 1013.4 hPa | 0 mm | - | 816 W/m² | - |
| 1778251826 | 15° C | 46% | 1013.5 hPa | 0 mm | - | 601 W/m² | - |
| 1778251524 | 15.56° C | 46% | 1013.5 hPa | 0 mm | - | 624 W/m² | - |
| 1778251221 | 15° C | 47% | 1013.5 hPa | 0 mm | - | 559 W/m² | - |
| 1778250919 | 15.56° C | 48% | 1013.6 hPa | 0 mm | - | 91 W/m² | - |
| 1778250615 | 15° C | 50% | 1013.4 hPa | 0 mm | - | 132 W/m² | - |
| 1778250312 | 14.44° C | 51% | 1013.5 hPa | 0 mm | - | 83 W/m² | - |
| 1778250009 | 15° C | 49% | 1013.6 hPa | 0 mm | - | 180 W/m² | - |
| 1778249705 | 14.44° C | 49% | 1013.4 hPa | 0 mm | - | 95 W/m² | - |
| 1778249403 | 13.89° C | 53% | 1013.7 hPa | 0 mm | - | 74 W/m² | - |
| 1778249100 | 13.89° C | 52% | 1013.5 hPa | 0 mm | - | 134 W/m² | - |
| 1778248795 | 13.33° C | 54% | 1013.8 hPa | 0 mm | - | 553 W/m² | - |
| 1778248492 | 13.89° C | 55% | 1013.5 hPa | 0 mm | - | 234 W/m² | - |
| 1778248189 | 13.33° C | 55% | 1013.7 hPa | 0 mm | - | 86 W/m² | - |
| 1778247885 | 13.33° C | 57% | 1013.7 hPa | 0 mm | - | 147 W/m² | - |
| 1778247582 | 13.33° C | 58% | 1013.6 hPa | 0 mm | - | 78 W/m² | - |
| 1778247279 | 13.33° C | 57% | 1013.6 hPa | 0 mm | - | 62 W/m² | - |
| 1778246976 | 12.78° C | 59% | 1013.8 hPa | 0 mm | - | 70 W/m² | - |
| 1778246674 | 12.78° C | 61% | 1013.7 hPa | 0 mm | - | 89 W/m² | - |
| 1778246371 | 12.78° C | 62% | 1013.7 hPa | 0 mm | - | 67 W/m² | - |
| 1778246066 | 12.22° C | 64% | 1013.7 hPa | 0 mm | - | 57 W/m² | - |
| 1778245763 | 12.22° C | 64% | 1013.6 hPa | 0 mm | - | 60 W/m² | - |
| 1778245460 | 12.22° C | 66% | 1014 hPa | 0 mm | - | 93 W/m² | - |
| 1778245156 | 11.67° C | 66% | 1013.7 hPa | 0 mm | - | 131 W/m² | - |
| 1778244852 | 11.67° C | 66% | 1013.8 hPa | 0 mm | - | 55 W/m² | - |
* Rain latest hour (hover to see other rain measurements)
** Current wind speed in m/s (hover to see current wind gust speed)